Weather Service Report


888 
ASUS43 KDTX 292210
RWRMI 
MICHIGAN HOURLY REGIONAL WEATHER ROUNDUP
NATIONAL WEATHER SERVICE DETROIT/PONTIAC MI
600 PM EDT TUE JUL 29 2014

NOTE: "FAIR" INDICATES FEW OR NO CLOUDS BELOW 12,000 FEET WITH NO
SIGNIFICANT WEATHER AND/OR OBSTRUCTION TO VISIBILITY.

MIZ047>049-052>055-059>063-066>070-074>076-081>083-292300-
SOUTHEAST LOWER MICHIGAN
  
CITY           SKY/WX    TMP DP  RH WIND       PRES   REMARKS
ADRIAN         PTSUNNY   72  55  55 W12       29.98F                  
ALMA           CLOUDY    63  56  80 CALM      29.94F                  
ANN ARBOR      MOSUNNY   73  54  51 W16       29.96F                  
BAD AXE        PTSUNNY   69  59  70 W3        29.92S                  
CARO           PTSUNNY   69  61  75 SW3       29.93S                  
DETROIT CITY   CLOUDY    73  53  49 W10       29.95S                  
DETROIT        CLOUDY    72  55  55 S12       29.96S                  
FLINT          CLOUDY    67  60  78 W3        29.95S                  
GROSSE ILE     PTSUNNY   72  54  53 SW8G16    29.95S                  
HILLSDALE      MOSUNNY   70  59  67 W7        29.99F                  
HOWELL         MOSUNNY   65  61  85 S6        29.96F                  

CITY           SKY/WX    TMP DP  RH WIND       PRES   REMARKS
JACKSON        MOSUNNY   71  58  63 SW10      29.96F                  
LAMBERTVILLE   PTSUNNY   72  54  53 SW8       29.97F                  
LANSING        LGT RAIN  69  57  65 W5        29.96S                  
LAPEER         FAIR      68  56  64 W5        29.95S                  
MASON          LGT RAIN  67  59  74 S3        29.96R                  
MONROE         MOSUNNY   73  54  49 W15       29.95S                  
MT. CLEMENS    PTSUNNY   70  54  56 W9        29.93S                  
PONTIAC        CLOUDY    61  56  83 S5        29.97S THUNDER          
PORT HOPE        N/A     65  58  78 E7        29.90S                  
PORT HURON     CLOUDY    70  57  64 SW8       29.94S                  
TRI CITIES     RAIN      69  58  67 SW7       29.93S                  
TROY           LGT RAIN  66  57  71 NW20G29   29.99R                  
SAGINAW HB     PTSUNNY   68  59  73 SW9       29.93S                  
$$
MIZ043>046-050>051-056>058-064>065-071>073-077>080-292300-
SOUTHWEST LOWER MICHIGAN
  
CITY           SKY/WX    TMP DP  RH WIND       PRES   REMARKS
BATTLE CREEK   MOSUNNY   73  55  53 W15       29.99R                  
BENTON HARBOR  SUNNY     70  56  61 VRB3      30.00F                  
BIG RAPIDS     MOSUNNY   71  52  52 NW8G21    29.95S                  
COLDWATER      MOSUNNY   71  59  66 SW3       29.98F                  
FREMONT        MOCLDY    73  52  47 NW14      29.97S                  
HOLLAND        SUNNY     69  57  65 W9        30.00F                  
GRAND RAPIDS   MOSUNNY   74  54  49 NW14      29.98R                  
IONIA          FAIR      73  54  51 NW13G21   29.95S                  
KALAMAZOO      SUNNY     73  55  53 W13G23    29.99S                  
LUDINGTON      MOSUNNY   64  56  73 W6        29.99S                  
MOUNT PLEASANT MOSUNNY   73  56  53 W10       29.92F                  
MUSKEGON       MOSUNNY   70  54  56 SW8       29.99S                  
SOUTH HAVEN    SUNNY     69  60  72 W5        30.00F                  
$$
MIZ016>042-292300-
NORTHERN LOWER MICHIGAN
  
CITY           SKY/WX    TMP DP  RH WIND       PRES   REMARKS
ALPENA         SUNNY     71  50  47 W9        29.90S                  
BEAVER ISLAND  MOSUNNY   69  59  71 W10       29.94S                  
BELLAIRE       MOSUNNY   67  55  65 NW8       29.94F                  
CADILLAC       MOSUNNY   69  57  66 NW13      29.95S                  
CHARLEVOIX     MOSUNNY   66  58  75 W13       29.97S                  
FRANKFORT      PTSUNNY   69  55  60 W6        29.96F                  
GAYLORD        SUNNY     66  49  54 W8        29.94S                  
GRAYLING       SUNNY     69  50  51 NW12G21   29.95S                  
HARBOR SPRINGS PTSUNNY   65  58  79 SW9       29.94S                  
HOUGHTON LAKE  MOSUNNY   70  54  56 NW14      29.94S                  
MANISTEE       MOSUNNY   66  54  63 NW8       29.98S                  
OSCODA         PTSUNNY   70  56  60 NE6       29.88S                  
PELLSTON       MOSUNNY   70  56  61 W13       29.92F                  
ROGERS CITY    SUNNY     69  57  65 N9        29.91R                  
TRAVERSE CITY  MOSUNNY   68  54  60 N8        29.94F                  
$$
MIZ007>008-015-292300-
EASTERN UPPER MICHIGAN
  
CITY           SKY/WX    TMP DP  RH WIND       PRES   REMARKS
KINROSS        SUNNY     64  55  72 N15       29.92R                  
MACKINAC ISLAN SUNNY     66  58  75 SW12G20   29.91R                  
NEWBERRY       MOSUNNY   65  52  61 N15       29.93S                  
S. S. MARIE    SUNNY     62  51  67 NW10G20   29.92R                  
MUNISING         N/A     60  54  80 NE6       29.96F                  
$$
MIZ004>006-011>014-085-292300-
CENTRAL UPPER MICHIGAN
  
CITY           SKY/WX    TMP DP  RH WIND       PRES   REMARKS
MANISTIQUE     CLOUDY    67  55  63 NW9       29.95R                  
ESCANABA       PTSUNNY   64  57  77 S5        29.95S                  
MENOMINEE      PTSUNNY   70  55  60 SE8       29.94S                  
$$
MIZ001>003-009>011-084-292300-
WESTERN UPPER MICHIGAN
  
CITY           SKY/WX    TMP DP  RH WIND       PRES   REMARKS
IRON MOUNTAIN  MOSUNNY   73  51  46 NW14      29.95S                  
HOUGHTON       PTSUNNY   62  54  74 NW14      29.98S                  
COPPER HARBOR    N/A     64  56  75 N18       29.97S                  
$$

ABBREVIATIONS USED IN REMARKS
   TC - TEMPERATURE IN CELSIUS
  WCI - WIND CHILL INDEX
   HX - HEAT INDEX
  VSB - VISIBILITY



899 
ASUS43 KDTX 292210
RWRMI 
MICHIGAN HOURLY REGIONAL WEATHER ROUNDUP
NATIONAL WEATHER SERVICE DETROIT/PONTIAC MI
600 PM EDT TUE JUL 29 2014

NOTE: "FAIR" INDICATES FEW OR NO CLOUDS BELOW 12,000 FEET WITH NO
SIGNIFICANT WEATHER AND/OR OBSTRUCTION TO VISIBILITY.

MIZ047>049-052>055-059>063-066>070-074>076-081>083-292300-
SOUTHEAST LOWER MICHIGAN
  
CITY           SKY/WX    TMP DP  RH WIND       PRES   REMARKS
ADRIAN         PTSUNNY   72  55  55 W12       29.98F                  
ALMA           CLOUDY    63  56  80 CALM      29.94F                  
ANN ARBOR      MOSUNNY   73  54  51 W16       29.96F                  
BAD AXE        PTSUNNY   69  59  70 W3        29.92S                  
DETROIT CITY   CLOUDY    73  53  49 W10       29.95S                  
DETROIT        CLOUDY    72  55  55 S12       29.96S                  
FLINT          CLOUDY    67  60  78 W3        29.95S                  
GROSSE ILE     PTSUNNY   72  54  53 SW8G16    29.95S                  
HILLSDALE      MOSUNNY   70  59  67 W7        29.99F                  
HOWELL         MOSUNNY   65  61  85 S6        29.96F                  

CITY           SKY/WX    TMP DP  RH WIND       PRES   REMARKS
JACKSON        MOSUNNY   71  58  63 SW10      29.96F                  
LAMBERTVILLE   PTSUNNY   72  54  53 SW8       29.97F                  
LANSING        LGT RAIN  69  57  65 W5        29.96S                  
LAPEER         NOT AVBL                                               
MASON          LGT RAIN  67  59  74 S3        29.96R                  
MONROE         MOSUNNY   73  54  49 W15       29.95S                  
MT. CLEMENS    PTSUNNY   70  54  56 W9        29.93S                  
PONTIAC        CLOUDY    61  56  83 S5        29.97S THUNDER          
PORT HOPE        N/A     65  58  78 E7        29.90S                  
PORT HURON     CLOUDY    70  57  64 SW8       29.94S                  
TRI CITIES     RAIN      69  58  67 SW7       29.93S                  
YPSILANTI      PTSUNNY   76  55  48 W14       29.96S                  
$$
MIZ043>046-050>051-056>058-064>065-071>073-077>080-292300-
SOUTHWEST LOWER MICHIGAN
  
CITY           SKY/WX    TMP DP  RH WIND       PRES   REMARKS
BATTLE CREEK   MOSUNNY   73  55  53 W15       29.99R                  
BENTON HARBOR  SUNNY     70  56  61 VRB3      30.00F                  
BIG RAPIDS     MOSUNNY   71  52  52 NW8G21    29.95S                  
COLDWATER      MOSUNNY   71  59  66 SW3       29.98F                  
HOLLAND        SUNNY     69  57  65 W9        30.00F                  
GRAND RAPIDS   MOSUNNY   74  54  49 NW14      29.98R                  
KALAMAZOO      SUNNY     73  55  53 W13G23    29.99S                  
MUSKEGON       MOSUNNY   70  54  56 SW8       29.99S                  
$$
MIZ016>042-292300-
NORTHERN LOWER MICHIGAN
  
CITY           SKY/WX    TMP DP  RH WIND       PRES   REMARKS
ALPENA         SUNNY     71  50  47 W9        29.90S                  
BEAVER ISLAND  MOSUNNY   69  59  71 W10       29.94S                  
BELLAIRE       MOSUNNY   67  55  65 NW8       29.94F                  
CADILLAC       MOSUNNY   69  57  66 NW13      29.95S                  
CHARLEVOIX     MOSUNNY   66  58  75 W13       29.97S                  
FRANKFORT      MOCLDY    69  55  60 W6        29.96F                  
GAYLORD        SUNNY     66  49  54 W8        29.94S                  
GRAYLING       SUNNY     69  50  51 NW12G21   29.95S                  
HARBOR SPRINGS PTSUNNY   65  58  79 SW9       29.94S                  
HOUGHTON LAKE  MOSUNNY   70  54  56 NW14      29.94S                  
MANISTEE       MOSUNNY   66  54  63 NW8       29.98S                  
OSCODA         PTSUNNY   70  56  60 NE6       29.88S                  
PELLSTON       MOSUNNY   70  56  61 W13       29.92F                  
TRAVERSE CITY  MOSUNNY   68  54  60 N8        29.94F                  
$$
MIZ007>008-015-292300-
EASTERN UPPER MICHIGAN
  
CITY           SKY/WX    TMP DP  RH WIND       PRES   REMARKS
KINROSS        SUNNY     64  55  72 N15       29.92R                  
MACKINAC ISLAN SUNNY     66  58  75 SW12G20   29.91R                  
NEWBERRY       MOSUNNY   65  52  61 N15       29.93S                  
S. S. MARIE    SUNNY     62  51  67 NW10G20   29.92R                  
$$
MIZ004>006-011>014-085-292300-
CENTRAL UPPER MICHIGAN
  
CITY           SKY/WX    TMP DP  RH WIND       PRES   REMARKS
MANISTIQUE     CLOUDY    67  55  63 NW9       29.95R                  
ESCANABA       PTSUNNY   64  57  77 S5        29.95S                  
MENOMINEE      PTSUNNY   70  55  60 SE8       29.94S                  
$$
MIZ001>003-009>011-084-292300-
WESTERN UPPER MICHIGAN
  
CITY           SKY/WX    TMP DP  RH WIND       PRES   REMARKS
IRON MOUNTAIN  MOSUNNY   73  51  46 NW14      29.95S                  
HOUGHTON       PTSUNNY   62  54  74 NW14      29.98S                  
COPPER HARBOR    N/A     64  56  75 N18       29.97S                  
$$

ABBREVIATIONS USED IN REMARKS
   TC - TEMPERATURE IN CELSIUS
  WCI - WIND CHILL INDEX
   HX - HEAT INDEX
  VSB - VISIBILITY


Return to Home page


Western Regional Climate Center, wrcc@dri.edu